Location: Buckenweiler
(49.0667°N, 10.2500°E)
Time: 20:45:40
(UTC+00:00)

Meteor 2-5 Rocket - Pass Details

Date: 18 January 2026
Orbit: 833 x 910 km, 81.2° (Epoch: 18 February)

Event Time Altitude Azimuth Distance (km) Brightness Sun altitude
Rises 05:49:13 0° 347° (NNW) 3,505 6.6 -12.2°
Reaches altitude 10° 05:51:40 10° 347° (NNW) 2,572 5.9 -11.8°
Maximum altitude 05:57:33 83° 260° (W) 916 3.8 -10.9°
Drops below altitude 10° 06:03:28 10° 174° (S) 2,586 6.6 -10.0°
Sets 06:05:55 0° 173° (S) 3,526 7.3 -9.6°
